TimeEST,TemperatureF,Dew PointF,Humidity,Sea Level PressureIn,VisibilityMPH,Wind Direction,Wind SpeedMPH,Gust SpeedMPH,PrecipitationIn,Events,Conditions,WindDirDegrees,DateUTC
12:54 AM,19.9,16.0,85,30.30,10.0,ENE,6.9,-,N/A,,Clear,60,2014-03-04 05:54:00
1:54 AM,19.0,10.9,71,30.31,10.0,ENE,9.2,-,N/A,,Clear,70,2014-03-04 06:54:00
2:54 AM,17.1,10.0,74,30.30,10.0,ENE,8.1,-,N/A,,Clear,60,2014-03-04 07:54:00
3:54 AM,16.0,9.0,74,30.31,10.0,NE,4.6,-,N/A,,Clear,50,2014-03-04 08:54:00
4:54 AM,15.1,9.0,77,30.32,10.0,NNE,3.5,-,N/A,,Clear,30,2014-03-04 09:54:00
5:54 AM,14.0,10.0,84,30.34,10.0,North,4.6,-,N/A,,Clear,10,2014-03-04 10:54:00
6:54 AM,15.1,10.0,80,30.35,10.0,Calm,Calm,-,N/A,,Clear,0,2014-03-04 11:54:00
7:54 AM,16.0,12.9,88,30.38,10.0,Calm,Calm,-,N/A,,Clear,0,2014-03-04 12:54:00
8:54 AM,19.9,8.1,60,30.38,10.0,NE,13.8,18.4,N/A,,Clear,40,2014-03-04 13:54:00
9:54 AM,21.0,8.1,57,30.38,10.0,NE,11.5,-,N/A,,Clear,50,2014-03-04 14:54:00
10:54 AM,24.1,10.0,55,30.36,10.0,NNE,8.1,-,N/A,,Clear,30,2014-03-04 15:54:00
11:54 AM,26.1,12.9,58,30.34,10.0,NE,9.2,-,N/A,,Clear,40,2014-03-04 16:54:00
12:54 PM,28.0,14.0,56,30.30,10.0,NNE,8.1,-,N/A,,Clear,30,2014-03-04 17:54:00
1:54 PM,30.0,14.0,51,30.28,10.0,North,9.2,-,N/A,,Clear,360,2014-03-04 18:54:00
2:54 PM,30.9,12.0,46,30.25,10.0,NE,5.8,-,N/A,,Clear,50,2014-03-04 19:54:00
3:54 PM,33.1,12.9,43,30.23,10.0,Variable,5.8,-,N/A,,Clear,0,2014-03-04 20:54:00
4:54 PM,32.0,10.9,42,30.24,10.0,NE,3.5,-,N/A,,Clear,50,2014-03-04 21:54:00
5:54 PM,30.9,10.9,43,30.24,10.0,ENE,3.5,-,N/A,,Clear,60,2014-03-04 22:54:00
6:54 PM,30.9,12.0,46,30.27,10.0,Calm,Calm,-,N/A,,Clear,0,2014-03-04 23:54:00
7:54 PM,30.0,14.0,51,30.27,10.0,Calm,Calm,-,N/A,,Clear,0,2014-03-05 00:54:00
8:54 PM,30.0,14.0,51,30.25,10.0,ENE,3.5,-,N/A,,Clear,70,2014-03-05 01:54:00
9:54 PM,30.0,15.1,54,30.24,10.0,NNE,3.5,-,N/A,,Clear,30,2014-03-05 02:54:00
10:54 PM,28.9,14.0,54,30.24,10.0,Calm,Calm,-,N/A,,Clear,0,2014-03-05 03:54:00
11:54 PM,28.9,14.0,54,30.24,10.0,Calm,Calm,-,N/A,,Clear,0,2014-03-05 04:54:00